カタログに戻る

INTELSAT 511

運用中通信GEO
NORAD 15873·PAYLOAD· XX

打ち上げ Jun 30, 1985 から Cape Canaveral Space Force Station

Loading…

TLE

最新Source: Space-Track

元期: Sep 13, 2026, 17:37 UTC

1 15873U 85055A   26256.73410120 -.00000047  00000-0  00000-0 0  9998
2 15873  13.1218 338.1035 0011041 114.5437 236.5436  1.00071751125398

AllMySatでINTELSAT 511をリアルタイム追跡

Download on the App Store